sat.trackr.live / text

‹ back to catalog

SITRO-AIS 5 (KATYS)

NORAD 57176 · 2023-091L

PAYLOAD ACTIVE UNKNOWN

§ Identity

Operator
Country
CIS
Launch date
2023-06-27
Launch site
VOSTO
Launch vehicle
Mass (kg)
RCS (m²)

Purposes: tech_demo

External: N2YO · Heavens-Above · Gunter

§ Orbital elements

Epoch: 2026-05-25T04:00:25.962624Z

Period
94.19 min
Inclination
97.5073°
Eccentricity
0.0011889
Mean motion
15.28838646 rev/d
Perigee alt
471.1 km
Apogee alt
487.4 km
Semi-major
6,857.4 km
B*
4.3706e-4
RAAN
208.8563°
Arg perigee
176.0754°
Mean anomaly
184.0581°
Rev number
16,082

§ Raw data

SITRO-AIS 5 (KATYS)1 57176U 23091L   26145.16696716  .00012203  00000+0  43706-3 0  99912 57176  97.5073 208.8563 0011889 176.0754 184.0581 15.28838646160823

JSON: /api/v1/satellites/57176 · /tle

For live sub-satellite position, see the globe view (requires WebGL).

§ Visibility from observer

Set your observer location to see the next 7 days of passes ≥ 10°. The values pass through the URL so the page stays shareable.

No JS? Fill the form by hand. The geolocation button needs JavaScript.

§ Radio — SatNOGS DB

ModeDescriptionDownlinkUplink
GMSK USP Mode U - GMSK USP 2K4 TLM 401.140 MHz

1 transmitter · refreshed weekly from db.satnogs.org